• In Uzbekistan
  • List of Countries
  • For 7 days
  • Water Temperature
  • Satellite Maps
  • Weather Map
  • Weather Widgets
  • user-avatar
    Login

    Hourly Weather Tirana

    Today, 17 December, Monday

    Time Temperature Precipitation Wind Pressure Humidity
    00:00 +5°C° 0 mm 2 mps 756 mmHg 70%
    01:00 +5°C° 0 mm 2 mps 756 mmHg 69%
    02:00 +5°C° 0 mm 2 mps 755 mmHg 66%
    03:00 +5°C° 0 mm 2 mps 755 mmHg 64%
    04:00 +5°C° 0 mm 3 mps 755 mmHg 61%
    05:00 +5°C° 0.1 mm 3 mps 754 mmHg 60%
    06:00 +5°C° 0.1 mm 3 mps 754 mmHg 59%
    07:00 +7°C° 0.1 mm 3 mps 753 mmHg 57%
    08:00 +8°C° 0.1 mm 3 mps 753 mmHg 57%
    09:00 +7°C° 0.1 mm 4 mps 753 mmHg 57%
    10:00 +8°C° 0.1 mm 4 mps 753 mmHg 57%
    11:00 +8°C° 0.6 mm 5 mps 752 mmHg 62%
    12:00 +7°C° 0.6 mm 6 mps 752 mmHg 68%
    13:00 +7°C° 0.6 mm 6 mps 751 mmHg 73%
    14:00 +7°C° 1.2 mm 6 mps 751 mmHg 76%
    15:00 +7°C° 1.2 mm 6 mps 750 mmHg 79%
    16:00 +7°C° 1.2 mm 6 mps 750 mmHg 81%
    17:00 +7°C° 1.3 mm 6 mps 750 mmHg 82%
    18:00 +7°C° 1.3 mm 6 mps 750 mmHg 84%
    19:00 +7°C° 1.3 mm 6 mps 750 mmHg 85%
    20:00 +5°C° 0.8 mm 6 mps 751 mmHg 85%
    21:00 +5°C° 0.8 mm 6 mps 751 mmHg 85%
    22:00 +5°C° 0.8 mm 6 mps 752 mmHg 85%
    23:00 +5°C° 0.3 mm 6 mps 752 mmHg 84%

    Tomorrow, 18 December, Tuesday

    Time Temperature Precipitation Wind Pressure Humidity
    00:00 +4°C° 0.3 mm 6 mps 752 mmHg 82%
    01:00 +4°C° 0.3 mm 6 mps 752 mmHg 81%
    02:00 +4°C° 0 mm 6 mps 753 mmHg 81%
    03:00 +4°C° 0 mm 6 mps 753 mmHg 80%
    04:00 +3°C° 0 mm 6 mps 753 mmHg 79%
    05:00 +3°C° 0 mm 6 mps 754 mmHg 79%
    06:00 +3°C° 0 mm 6 mps 754 mmHg 78%
    07:00 +3°C° 0 mm 6 mps 755 mmHg 78%
    08:00 +3°C° 0 mm 6 mps 755 mmHg 76%
    09:00 +4°C° 0 mm 6 mps 756 mmHg 74%
    10:00 +5°C° 0 mm 6 mps 756 mmHg 73%
    11:00 +5°C° 0 mm 6 mps 756 mmHg 73%
    12:00 +7°C° 0 mm 6 mps 756 mmHg 73%
    13:00 +7°C° 0 mm 6 mps 756 mmHg 72%
    14:00 +7°C° 0 mm 6 mps 756 mmHg 74%
    15:00 +5°C° 0 mm 6 mps 756 mmHg 75%
    16:00 +6°C° 0 mm 5 mps 757 mmHg 76%
    17:00 +5°C° 0 mm 5 mps 757 mmHg 77%
    18:00 +3°C° 0 mm 5 mps 758 mmHg 77%
    19:00 +3°C° 0 mm 5 mps 758 mmHg 78%
    20:00 +2°C° 0 mm 5 mps 758 mmHg 78%
    21:00 +3°C° 0 mm 4 mps 759 mmHg 77%
    22:00 +3°C° 0 mm 4 mps 759 mmHg 77%
    23:00 +3°C° 0 mm 4 mps 759 mmHg 77%

    Day after tomorrow, 19 December, Wednesday

    Time Temperature Precipitation Wind Pressure Humidity
    00:00 +1°C° 0 mm 4 mps 759 mmHg 76%
    01:00 +1°C° 0 mm 4 mps 759 mmHg 76%
    02:00 +1°C° 0 mm 4 mps 759 mmHg 75%
    03:00 +1°C° 0 mm 4 mps 759 mmHg 75%
    04:00 +2°C° 0 mm 3 mps 759 mmHg 75%
    05:00 +2°C° 0 mm 3 mps 760 mmHg 74%
    06:00 +2°C° 0 mm 3 mps 760 mmHg 74%
    07:00 +2°C° 0 mm 3 mps 760 mmHg 74%
    08:00 +5°C° 0 mm 2 mps 760 mmHg 73%
    09:00 +6°C° 0 mm 2 mps 760 mmHg 72%
    10:00 +8°C° 0 mm 2 mps 760 mmHg 72%
    11:00 +10°C° 0 mm 1 mps 760 mmHg 69%
    12:00 +11°C° 0 mm 1 mps 760 mmHg 67%
    13:00 +11°C° 0 mm 1 mps 759 mmHg 65%
    14:00 +10°C° 0 mm 1 mps 760 mmHg 68%
    15:00 +9°C° 0 mm 1 mps 760 mmHg 71%
    16:00 +8°C° 0 mm 1 mps 760 mmHg 74%
    17:00 +8°C° 0 mm 1 mps 760 mmHg 74%
    18:00 +7°C° 0 mm 1 mps 760 mmHg 74%
    19:00 +7°C° 0 mm 1 mps 760 mmHg 75%
    20:00 +6°C° 0 mm 2 mps 761 mmHg 73%
    21:00 +6°C° 0 mm 2 mps 761 mmHg 72%
    22:00 +5°C° 0 mm 2 mps 761 mmHg 71%
    23:00 +5°C° 0 mm 2 mps 761 mmHg 70%

    20 December, Thursday

    Time Temperature Precipitation Wind Pressure Humidity
    00:00 +5°C° 0 mm 2 mps 761 mmHg 68%
    01:00 +5°C° 0 mm 2 mps 761 mmHg 67%
    02:00 +4°C° 0 mm 3 mps 761 mmHg 66%
    03:00 +4°C° 0 mm 3 mps 760 mmHg 64%
    04:00 +4°C° 0 mm 3 mps 760 mmHg 62%
    05:00 +4°C° 0 mm 4 mps 760 mmHg 61%
    06:00 +4°C° 0 mm 4 mps 760 mmHg 60%
    07:00 +4°C° 0 mm 4 mps 761 mmHg 58%
    08:00 +6°C° 0 mm 4 mps 761 mmHg 59%
    09:00 +7°C° 0 mm 5 mps 761 mmHg 60%
    10:00 +9°C° 0 mm 5 mps 761 mmHg 61%
    11:00 +10°C° 0 mm 5 mps 760 mmHg 60%
    12:00 +10°C° 0 mm 5 mps 760 mmHg 60%
    13:00 +11°C° 0 mm 6 mps 759 mmHg 59%
    14:00 +10°C° 0.1 mm 6 mps 759 mmHg 61%
    15:00 +9°C° 0.1 mm 6 mps 759 mmHg 63%
    16:00 +8°C° 0.1 mm 6 mps 759 mmHg 65%
    17:00 +8°C° 0.1 mm 6 mps 759 mmHg 67%
    18:00 +8°C° 0.1 mm 6 mps 759 mmHg 68%
    19:00 +8°C° 0.1 mm 7 mps 759 mmHg 70%
    20:00 +8°C° 0.2 mm 7 mps 759 mmHg 72%
    21:00 +8°C° 0.2 mm 6 mps 759 mmHg 75%
    22:00 +8°C° 0.2 mm 6 mps 759 mmHg 77%
    23:00 +8°C° 0.4 mm 6 mps 759 mmHg 79%

    21 December, Friday

    Time Temperature Precipitation Wind Pressure Humidity
    00:00 +8°C° 0.4 mm 6 mps 758 mmHg 81%
    01:00 +8°C° 0.4 mm 5 mps 758 mmHg 83%
    02:00 +8°C° 0.4 mm 5 mps 758 mmHg 85%
    03:00 +8°C° 0.4 mm 4 mps 758 mmHg 88%
    04:00 +8°C° 0.4 mm 4 mps 758 mmHg 91%
    05:00 +8°C° 0.1 mm 4 mps 758 mmHg 92%
    06:00 +8°C° 0.1 mm 4 mps 758 mmHg 93%
    07:00 +8°C° 0.1 mm 4 mps 759 mmHg 95%
    08:00 +10°C° 0.2 mm 4 mps 759 mmHg 90%
    09:00 +11°C° 0.2 mm 4 mps 759 mmHg 85%
    10:00 +12°C° 0.2 mm 4 mps 760 mmHg 80%
    11:00 +12°C° 0.2 mm 4 mps 759 mmHg 79%
    12:00 +12°C° 0.2 mm 4 mps 759 mmHg 78%
    13:00 +12°C° 0.2 mm 4 mps 759 mmHg 77%
    14:00 +11°C° 0.1 mm 4 mps 759 mmHg 79%
    15:00 +11°C° 0.1 mm 4 mps 760 mmHg 82%
    16:00 +10°C° 0.1 mm 4 mps 760 mmHg 85%
    17:00 +9°C° 0 mm 3 mps 760 mmHg 86%
    18:00 +9°C° 0 mm 3 mps 760 mmHg 88%
    19:00 +8°C° 0 mm 2 mps 761 mmHg 89%
    20:00 +8°C° 0 mm 2 mps 761 mmHg 90%
    21:00 +7°C° 0 mm 2 mps 761 mmHg 90%
    22:00 +7°C° 0 mm 2 mps 761 mmHg 91%
    23:00 +7°C° 0 mm 2 mps 761 mmHg 89%

    22 December, Saturday

    Time Temperature Precipitation Wind Pressure Humidity
    00:00 +7°C° 0 mm 2 mps 761 mmHg 88%
    01:00 +7°C° 0 mm 2 mps 761 mmHg 87%
    02:00 +7°C° 0 mm 2 mps 761 mmHg 86%
    03:00 +7°C° 0 mm 3 mps 761 mmHg 84%
    04:00 +7°C° 0 mm 3 mps 760 mmHg 83%
    05:00 +7°C° 0 mm 3 mps 760 mmHg 82%
    06:00 +7°C° 0 mm 3 mps 761 mmHg 81%
    07:00 +7°C° 0 mm 3 mps 761 mmHg 80%
    08:00 +8°C° 0 mm 3 mps 761 mmHg 78%
    09:00 +9°C° 0 mm 3 mps 761 mmHg 76%
    10:00 +11°C° 0 mm 3 mps 761 mmHg 74%
    11:00 +11°C° 0 mm 3 mps 761 mmHg 74%
    12:00 +12°C° 0 mm 3 mps 760 mmHg 74%
    13:00 +12°C° 0 mm 3 mps 760 mmHg 74%
    14:00 +11°C° 0.1 mm 3 mps 760 mmHg 76%
    15:00 +12°C° 0.1 mm 2 mps 760 mmHg 79%
    16:00 +10°C° 0.1 mm 2 mps 760 mmHg 82%
    17:00 +10°C° 0 mm 2 mps 760 mmHg 83%
    18:00 +10°C° 0 mm 2 mps 760 mmHg 83%
    19:00 +9°C° 0 mm 3 mps 760 mmHg 84%
    20:00 +9°C° 0 mm 3 mps 760 mmHg 84%
    21:00 +9°C° 0 mm 3 mps 760 mmHg 84%
    22:00 +9°C° 0 mm 2 mps 761 mmHg 85%
    23:00 +9°C° 0 mm 3 mps 760 mmHg 85%
    Show more